Date String (YYYY-MM-DD hh:mm:ss) UTC,Instrument flags,Ambient pressure (hPa),Sample flow (lpm),Bypass flow (lpm),Sample temperature (°C),Ambient temperature (°C),ASC tube jacket temperature (°C),LED temperature (°C),Box temperature (°C),Sample RH (%),Span deviation,Mass concentration (μg/m³),Mass concentration (μg/m³),Mass concentration (μg/m³)
DateTimeUTC,F1_M11,P_M11,Q1_M11,Q2_M11,T1_M11,T2_M11,T3_M11,T4_M11,T5_M11,U1_M11,ZSPAN_M11,X0_M11,X2_M11,X1_M11
2021-09-17 16:00:00,,0836.0,5.00,0.00,29.4,28.7,00.0,38.5,31.2,17.2,0000.0,0014.57,0004.78,0003.82
2021-09-17 16:01:00,,0836.0,4.98,0.00,29.4,28.7,00.0,38.5,31.2,17.3,0000.0,0016.22,0004.81,0003.83
2021-09-17 16:02:00,,0836.0,5.01,0.00,29.4,28.7,00.0,38.5,31.2,17.3,0000.0,0016.53,0004.80,0003.82
2021-09-17 16:03:00,,0836.0,4.98,0.00,29.4,28.7,00.0,38.6,31.2,17.3,0000.0,0016.65,0004.80,0003.84
2021-09-17 16:04:00,,0836.1,5.00,0.00,29.4,28.7,00.0,38.6,31.2,17.2,0000.0,0016.67,0004.86,0003.85
2021-09-17 16:05:00,,0836.0,5.00,0.00,29.4,28.7,00.0,38.6,31.2,17.2,0000.0,0016.26,0004.94,0003.86
2021-09-17 16:06:00,,0836.1,5.01,0.00,29.4,28.7,00.0,38.6,31.2,17.2,0000.0,0016.18,0004.94,0003.87
2021-09-17 16:07:00,,0836.0,4.99,0.00,29.4,28.7,00.0,38.6,31.2,17.2,0000.0,0015.45,0004.93,0003.88
2021-09-17 16:08:00,,0836.1,5.00,0.00,29.4,28.7,00.0,38.6,31.2,17.3,0000.0,0015.08,0004.90,0003.87
2021-09-17 16:09:00,,0836.1,5.01,0.00,29.4,28.7,00.0,38.6,31.2,17.3,0000.0,0013.94,0004.84,0003.87
2021-09-17 16:10:00,,0836.0,4.99,0.00,29.4,28.7,00.0,38.6,31.2,17.3,0000.0,0013.70,0004.81,0003.88
2021-09-17 16:11:00,,0836.1,4.99,0.00,29.4,28.7,00.0,38.6,31.2,17.4,0000.0,0013.99,0004.79,0003.88
2021-09-17 16:12:00,,0836.1,5.00,0.00,29.4,28.7,00.0,38.6,31.1,17.3,0000.0,0013.83,0004.81,0003.89
2021-09-17 16:13:00,,0836.1,5.00,0.00,29.4,28.7,00.0,38.6,31.1,17.2,0000.0,0013.73,0004.80,0003.91
2021-09-17 16:14:00,,0836.0,5.01,0.00,29.4,28.6,00.0,38.6,31.1,17.3,0000.0,0014.09,0004.82,0003.92
2021-09-17 16:15:00,,0836.0,5.00,0.00,29.4,28.7,00.0,38.6,31.1,17.3,0000.0,0013.82,0004.81,0003.93
2021-09-17 16:16:00,,0836.0,5.00,0.00,29.4,28.6,00.0,38.5,31.0,17.3,0000.0,0014.01,0004.77,0003.94
2021-09-17 16:17:00,,0836.0,5.00,0.00,29.4,28.6,00.0,38.5,31.0,17.4,0000.0,0013.98,0004.80,0003.94
2021-09-17 16:18:00,,0836.0,5.01,0.00,29.4,28.6,00.0,38.5,31.1,17.5,0000.0,0014.05,0004.83,0003.94
2021-09-17 16:19:00,,0836.0,5.00,0.00,29.4,28.6,00.0,38.5,31.1,17.3,0000.0,0013.61,0004.85,0003.95
2021-09-17 16:20:00,,0835.9,5.01,0.00,29.4,28.6,00.0,38.5,31.1,17.3,0000.0,0013.43,0004.87,0003.96
2021-09-17 16:21:00,,0835.9,4.99,0.00,29.4,28.6,00.0,38.5,31.1,17.3,0000.0,0013.74,0004.91,0003.96
2021-09-17 16:22:00,,0835.9,5.00,0.00,29.4,28.6,00.0,38.5,31.2,17.3,0000.0,0013.44,0004.96,0003.96
2021-09-17 16:23:00,,0836.0,5.01,0.00,29.4,28.7,00.0,38.5,31.1,17.4,0000.0,0012.16,0004.98,0003.97
2021-09-17 16:24:00,,0836.0,5.00,0.00,29.4,28.7,00.0,38.5,31.2,17.3,0000.0,0012.34,0005.01,0003.98
2021-09-17 16:25:00,,0835.9,5.01,0.00,29.4,28.7,00.0,38.5,31.2,17.5,0000.0,0012.43,0005.02,0003.99
2021-09-17 16:26:00,,0835.9,4.99,0.00,29.4,28.7,00.0,38.5,31.2,17.5,0000.0,0012.98,0005.00,0003.98
2021-09-17 16:27:00,,0835.9,5.01,0.00,29.4,28.7,00.0,38.5,31.2,17.4,0000.0,0012.73,0005.02,0003.98
2021-09-17 16:28:00,,0835.9,5.00,0.00,29.4,28.7,00.0,38.5,31.2,17.3,0000.0,0012.89,0005.00,0003.98
2021-09-17 16:29:00,,0835.9,5.00,0.00,29.4,28.7,00.0,38.5,31.2,17.3,0000.0,0013.25,0005.05,0004.00
2021-09-17 16:30:00,,0835.9,4.99,0.00,29.4,28.7,00.0,38.5,31.2,17.3,0000.0,0014.30,0005.06,0004.00
2021-09-17 16:31:00,,0835.9,5.00,0.00,29.4,28.7,00.0,38.5,31.2,17.4,0000.0,0014.73,0005.06,0003.99
2021-09-17 16:32:00,,0835.9,5.01,0.00,29.5,28.7,00.0,38.5,31.2,17.4,0000.0,0014.84,0005.06,0003.99
2021-09-17 16:33:00,,0835.9,5.00,0.00,29.5,28.8,00.0,38.5,31.2,17.5,0000.0,0014.43,0005.06,0003.99
2021-09-17 16:34:00,,0835.9,4.99,0.00,29.5,28.8,00.0,38.5,31.2,17.5,0000.0,0014.32,0005.07,0003.99
2021-09-17 16:35:00,,0835.9,5.01,0.00,29.5,28.8,00.0,38.5,31.2,17.5,0000.0,0013.86,0005.09,0004.00
2021-09-17 16:36:00,,0835.9,5.01,0.00,29.5,28.8,00.0,38.6,31.2,17.5,0000.0,0013.52,0005.11,0004.00
2021-09-17 16:37:00,,0835.9,4.99,0.00,29.5,28.8,00.0,38.6,31.3,17.6,0000.0,0013.04,0005.13,0004.01
2021-09-17 16:38:00,,0835.8,5.00,0.00,29.5,28.8,00.0,38.6,31.3,17.4,0000.0,0013.33,0005.13,0004.02
2021-09-17 16:39:00,,0835.8,5.01,0.00,29.5,28.8,00.0,38.6,31.3,17.6,0000.0,0013.98,0005.14,0004.02
2021-09-17 16:40:00,,0835.8,5.01,0.00,29.5,28.8,00.0,38.6,31.3,17.5,0000.0,0013.53,0005.09,0004.02
2021-09-17 16:41:00,,0835.9,4.99,0.00,29.6,28.9,00.0,38.6,31.3,17.6,0000.0,0013.25,0005.07,0004.02
2021-09-17 16:42:00,,0835.8,5.02,0.00,29.6,28.9,00.0,38.6,31.3,17.5,0000.0,0013.40,0005.11,0004.03
2021-09-17 16:43:00,,0835.8,4.99,0.00,29.6,28.9,00.0,38.6,31.3,17.4,0000.0,0014.02,0005.13,0004.03
2021-09-17 16:44:00,,0835.8,5.00,0.00,29.6,28.9,00.0,38.6,31.3,17.4,0000.0,0014.27,0005.10,0004.05
2021-09-17 16:45:00,,0835.8,5.01,0.00,29.6,28.9,00.0,38.6,31.3,17.3,0000.0,0014.36,0005.07,0004.06
2021-09-17 16:46:00,,0835.8,4.99,0.00,29.6,28.9,00.0,38.7,31.3,17.3,0000.0,0014.48,0005.10,0004.06
2021-09-17 16:47:00,,0835.8,5.01,0.00,29.6,28.9,00.0,38.7,31.3,17.4,0000.0,0015.10,0005.09,0004.08
2021-09-17 16:48:00,,0835.8,4.99,0.00,29.6,28.9,00.0,38.7,31.4,17.5,0000.0,0015.14,0005.09,0004.09
2021-09-17 16:49:00,,0835.8,4.99,0.00,29.6,28.9,00.0,38.7,31.3,17.6,0000.0,0015.74,0005.13,0004.08
2021-09-17 16:50:00,,0835.7,5.00,0.00,29.6,28.9,00.0,38.7,31.4,17.4,0000.0,0016.28,0005.11,0004.09
2021-09-17 16:51:00,,0835.7,5.00,0.00,29.6,29.0,00.0,38.7,31.4,17.4,0000.0,0016.57,0005.13,0004.11
2021-09-17 16:52:00,,0835.8,5.00,0.00,29.7,29.0,00.0,38.7,31.4,17.4,0000.0,0016.04,0005.16,0004.13
2021-09-17 16:53:00,,0835.8,5.00,0.00,29.7,29.0,00.0,38.7,31.4,17.4,0000.0,0015.99,0005.15,0004.14
2021-09-17 16:54:00,,0835.8,5.00,0.00,29.7,29.0,00.0,38.7,31.5,17.3,0000.0,0015.12,0005.15,0004.16
2021-09-17 16:55:00,,0835.8,5.01,0.00,29.7,29.1,00.0,38.7,31.5,17.4,0000.0,0014.29,0005.24,0004.20
2021-09-17 16:56:00,,0835.7,4.99,0.00,29.8,29.1,00.0,38.8,31.5,17.3,0000.0,0014.77,0005.29,0004.21
2021-09-17 16:57:00,,0835.7,5.01,0.00,29.8,29.1,00.0,38.8,31.5,17.3,0000.0,0014.37,0005.23,0004.23
2021-09-17 16:58:00,,0835.7,4.99,0.00,29.8,29.1,00.0,38.8,31.6,17.3,0000.0,0013.74,0005.26,0004.24
2021-09-17 16:59:00,,0835.7,5.01,0.00,29.8,29.1,00.0,38.8,31.6,17.4,0000.0,0014.05,0005.32,0004.28
